Location: Dittelbrunn
(50.0738°N, 10.2196°E)
Time: 13:14:05
(UTC+00:00)

USA 116 - Pass Details

Date: 18 September 2020
Orbit: 405 x 834 km, 97.9° (Epoch: 18 November)

Event Time Altitude Azimuth Distance (km) Brightness Sun altitude
Rises 18:16:47 0° 13° (NNE) 2,413 7.0 -9.0°
Reaches altitude 10° 18:18:42 10° 14° (NNE) 1,575 6.1 -9.3°
Maximum altitude 18:22:04 88° 284° (WNW) 480 3.4 -9.8°
Drops below altitude 10° 18:25:45 10° 196° (SSW) 1,732 6.3 -10.4°
Sets 18:27:58 0° 196° (SSW) 2,682 7.2 -10.7°
